sat.trackr.live / text

‹ back to catalog

STARLINK-31960

NORAD 59931 · 2024-106K

PAYLOAD ACTIVE UNKNOWN

§ Identity

Operator
Country
US
Launch date
2024-06-01
Launch site
AFETR
Launch vehicle
Mass (kg)
RCS (m²)

Purposes: comms

External: N2YO · Heavens-Above · Gunter

§ Orbital elements

Epoch: 2026-05-25T01:09:44.772768Z

Period
94.27 min
Inclination
43.0025°
Eccentricity
0.0001152
Mean motion
15.27599905 rev/d
Perigee alt
482.2 km
Apogee alt
483.8 km
Semi-major
6,861.1 km
B*
-2.5429e-4
RAAN
261.0539°
Arg perigee
274.6171°
Mean anomaly
85.4549°
Rev number
11,220

§ Raw data

STARLINK-319601 59931U 24106K   26145.04843487 -.00007257  00000+0 -25429-3 0  99932 59931  43.0025 261.0539 0001152 274.6171  85.4549 15.27599905112209

JSON: /api/v1/satellites/59931 · /tle

For live sub-satellite position, see the globe view (requires WebGL).

§ Visibility from observer

Set your observer location to see the next 7 days of passes ≥ 10°. The values pass through the URL so the page stays shareable.

No JS? Fill the form by hand. The geolocation button needs JavaScript.